CW4054 Weather Reports


Display with metric or nautical units.
time (UTC)temp
F
wind
direction
speed
MPH
gust
MPH
rain 1hr
in
rain 24hr
in
rain mn
in
humidity
%
barometer
mb
20260505181846 81 239 5.0 12.0 0.00 0.00 0.00 36 1010.9
20260505181331 81 192 6.0 17.0 0.00 0.00 0.00 36 1010.9
20260505180836 81 132 8.0 19.0 0.00 0.00 0.00 36 1011.1
20260505180321 81 169 5.0 19.0 0.00 0.00 0.00 36 1011.2
20260505175837 81 248 5.0 16.0 0.00 0.00 0.00 36 1011.2
20260505175342 80 152 5.0 19.0 0.00 0.00 0.00 34 1011.2
20260505174827 80 231 7.0 19.0 0.00 0.00 0.00 34 1011.3
20260505174353 81 219 6.0 19.0 0.00 0.00 0.00 34 1011.3
20260505173839 80 202 4.0 19.0 0.00 0.00 0.00 35 1011.4
20260505173330 80 173 6.0 16.0 0.00 0.00 0.00 35 1011.5
20260505172836 80 216 8.0 16.0 0.00 0.00 0.00 32 1011.5
20260505172343 80 206 5.0 14.0 0.00 0.00 0.00 36 1011.5
20260505171827 80 213 5.0 12.0 0.00 0.00 0.00 34 1011.6
20260505171334 80 173 5.0 12.0 0.00 0.00 0.00 36 1011.7
20260505170859 79 240 5.0 14.0 0.00 0.00 0.00 38 1011.8
20260505170324 79 262 7.0 16.0 0.00 0.00 0.00 38 1012.0
20260505165838 79 229 8.0 16.0 0.00 0.00 0.00 39 1012.0
20260505165343 79 206 6.0 16.0 0.00 0.00 0.00 38 1012.0
20260505164828 79 103 4.0 12.0 0.00 0.00 0.00 38 1012.0
20260505164355 79 136 6.0 12.0 0.00 0.00 0.00 40 1012.2
20260505163840 79 241 5.0 10.0 0.00 0.00 0.00 39 1012.3
20260505163323 79 197 4.0 15.0 0.00 0.00 0.00 41 1012.3
20260505162828 79 219 6.0 15.0 0.00 0.00 0.00 41 1012.3
20260505162355 79 214 6.0 14.0 0.00 0.00 0.00 42 1012.3
20260505161824 78 214 5.0 13.0 0.00 0.00 0.00 41 1012.4
20260505161330 78 159 7.0 14.0 0.00 0.00 0.00 42 1012.4
20260505160835 78 230 7.0 13.0 0.00 0.00 0.00 41 1012.4
20260505160340 78 232 8.0 13.0 0.00 0.00 0.00 41 1012.5
20260505153320 77 155 5.0 14.0 0.00 0.00 0.00 45 1012.5
20260505152847 77 284 7.0 14.0 0.00 0.00 0.00 42 1012.6
20260505152332 77 195 3.0 10.0 0.00 0.00 0.00 45 1012.4
20260505151838 77 203 4.0 10.0 0.00 0.00 0.00 42 1012.4
20260505151327 76 250 3.0 12.0 0.00 0.00 0.00 45 1012.4
20260505150832 76 248 5.0 12.0 0.00 0.00 0.00 45 1012.4
20260505150339 76 272 4.0 12.0 0.00 0.00 0.00 46 1012.5
20260505140343 72 255 2.0 9.0 0.00 0.00 0.00 51 1012.5
20260505124823 64 249 4.0 9.0 0.00 0.00 0.00 61 1013.3
20260505124329 64 234 1.0 5.0 0.00 0.00 0.00 61 1013.3
20260505123835 64 252 1.0 5.0 0.00 0.00 0.00 62 1013.3
20260505123321 63 225 1.0 5.0 0.00 0.00 0.00 62 1013.3
20260505122847 63 245 1.0 7.0 0.00 0.00 0.00 63 1013.3
20260505122351 63 273 0.0 7.0 0.00 0.00 0.00 63 1013.3
20260505121835 63 216 3.0 5.0 0.00 0.00 0.00 63 1013.2
20260505121323 62 238 4.0 8.0 0.00 0.00 0.00 63 1013.0
20260505120833 62 233 4.0 7.0 0.00 0.00 0.00 63 1013.0
20260505120338 61 252 3.0 6.0 0.00 0.00 0.00 64 1013.0
20260505115834 61 237 1.0 4.0 0.00 0.00 0.00 65 1013.0
20260505115339 61 208 1.0 5.0 0.00 0.00 0.00 64 1013.0
20260505114823 61 206 2.0 7.0 0.00 0.00 0.00 65 1012.8
20260505114328 61 250 2.0 7.0 0.00 0.00 0.00 65 1012.9
20260505113854 60 221 1.0 4.0 0.00 0.00 0.00 66 1012.9
20260505113338 60 213 1.0 4.0 0.00 0.00 0.00 66 1012.9
20260505112823 60 242 2.0 7.0 0.00 0.00 0.00 66 1012.8
20260505112329 60 263 3.0 7.0 0.00 0.00 0.00 66 1012.7
20260505111835 60 240 1.0 8.0 0.00 0.00 0.00 66 1012.8
20260505111323 59 170 1.0 8.0 0.00 0.00 0.00 67 1012.7
20260505110829 59 212 1.0 6.0 0.00 0.00 0.00 67 1012.7
20260505110334 59 209 1.0 8.0 0.00 0.00 0.00 67 1012.6
20260505101829 58 219 0.0 4.0 0.00 0.00 0.00 69 1012.1
20260505101335 58 207 1.0 4.0 0.00 0.00 0.00 69 1012.2
20260505100846 59 200 1.0 4.0 0.00 0.00 0.00 68 1012.2
20260505100331 59 219 0.0 3.0 0.00 0.00 0.00 68 1012.1
20260505095826 59 219 0.0 2.0 0.00 0.00 0.00 68 1012.0
20260505095330 59 219 1.0 5.0 0.00 0.00 0.00 68 1012.0
20260505094836 59 219 1.0 5.0 0.00 0.00 0.00 68 1012.0
20260505094321 59 217 0.0 4.0 0.00 0.00 0.00 68 1011.9
20260505093827 59 217 1.0 5.0 0.00 0.00 0.00 68 1011.9
20260505093332 59 238 2.0 7.0 0.00 0.00 0.00 68 1011.9
20260505092839 59 244 1.0 7.0 0.00 0.00 0.00 68 1011.8
20260505092345 59 239 1.0 7.0 0.00 0.00 0.00 68 1011.9
20260505091829 59 223 1.0 7.0 0.00 0.00 0.00 68 1011.9
20260505091336 59 206 1.0 5.0 0.00 0.00 0.00 68 1011.9
20260505090826 59 269 0.0 4.0 0.00 0.00 0.00 68 1011.8
20260505090330 59 223 0.0 2.0 0.00 0.00 0.00 68 1011.9
20260505085826 60 222 0.0 3.0 0.00 0.00 0.00 67 1011.8
20260505085331 60 223 1.0 3.0 0.00 0.00 0.00 67 1011.9
20260505084838 60 223 1.0 4.0 0.00 0.00 0.00 67 1011.9
20260505084324 60 218 1.0 4.0 0.00 0.00 0.00 67 1011.8
20260505083831 60 210 1.0 5.0 0.00 0.00 0.00 66 1011.8
20260505083338 60 227 1.0 5.0 0.00 0.00 0.00 66 1011.8
20260505082822 61 209 0.0 4.0 0.00 0.00 0.00 66 1011.8
20260505082329 61 209 1.0 5.0 0.00 0.00 0.00 66 1011.9
20260505081856 61 215 3.0 8.0 0.00 0.00 0.00 66 1011.8
20260505081324 61 213 2.0 8.0 0.00 0.00 0.00 66 1011.7
20260505080828 61 216 1.0 4.0 0.00 0.00 0.00 66 1011.7
20260505080334 61 200 0.0 4.0 0.00 0.00 0.00 66 1011.7
20260505075830 61 192 1.0 4.0 0.00 0.00 0.00 66 1011.5
20260505075335 61 190 0.0 4.0 0.00 0.00 0.00 66 1011.4
20260505074821 61 186 0.0 4.0 0.00 0.00 0.00 66 1011.5
20260505074327 61 202 0.0 4.0 0.00 0.00 0.00 66 1011.4
20260505073832 61 199 0.0 4.0 0.00 0.00 0.00 66 1011.4
20260505073338 61 239 0.0 4.0 0.00 0.00 0.00 67 1011.3
20260505072823 61 240 0.0 4.0 0.00 0.00 0.00 66 1011.3
20260505072333 60 210 0.0 3.0 0.00 0.00 0.00 67 1011.3
20260505071839 60 209 0.0 4.0 0.00 0.00 0.00 67 1011.2
20260505071325 60 211 0.0 2.0 0.00 0.00 0.00 68 1011.3
20260505070831 60 211 0.0 0.0 0.00 0.00 0.00 68 1011.2
20260505070335 59 211 1.0 3.0 0.00 0.00 0.00 69 1011.3
20260505065853 59 211 0.0 1.0 0.00 0.00 0.00 69 1011.3
20260505065336 59 211 0.0 2.0 0.00 0.00 0.00 69 1011.4
20260505064821 60 211 0.0 2.0 0.00 0.00 0.00 69 1011.3
20260505064325 60 211 0.0 2.0 0.00 0.00 0.00 67 1011.4
20260505063853 60 211 0.0 2.0 0.00 0.00 0.00 67 1011.4
20260505063338 61 211 0.0 2.0 0.00 0.00 0.00 66 1011.6
20260505062825 61 211 0.0 2.0 0.00 0.00 0.00 66 1011.5
20260505062335 61 211 0.0 2.0 0.00 0.00 0.00 65 1011.5
20260505061822 62 211 0.0 3.0 0.00 0.00 0.00 64 1011.5
20260505061327 62 211 0.0 3.0 0.00 0.00 0.00 64 1011.5
20260505060855 62 211 1.0 2.0 0.00 0.00 0.00 63 1011.4
20260505060321 62 211 0.0 2.0 0.00 0.00 0.00 62 1011.4
20260505055836 63 211 0.0 4.0 0.00 0.00 0.00 62 1011.6
20260505055321 63 211 1.0 4.0 0.00 0.00 0.00 62 1011.6
20260505054827 63 213 1.0 4.0 0.00 0.00 0.00 61 1011.6
20260505054334 63 217 0.0 6.0 0.00 0.00 0.00 61 1011.6
20260505053900 64 217 1.0 6.0 0.00 0.00 0.00 61 1011.6
20260505053325 64 212 1.0 6.0 0.00 0.00 0.00 60 1011.7
20260505052830 64 218 1.0 8.0 0.00 0.00 0.00 60 1011.7
20260505052320 64 222 1.0 7.0 0.00 0.00 0.00 60 1011.7
20260505051827 64 219 3.0 7.0 0.00 0.00 0.00 60 1011.8
20260505051355 64 214 1.0 6.0 0.00 0.00 0.00 59 1011.7
20260505050839 64 205 3.0 7.0 0.00 0.00 0.00 59 1011.5
20260505050325 64 215 2.0 9.0 0.00 0.00 0.00 58 1011.7
20260505041334 65 223 0.0 5.0 0.00 0.00 0.00 56 1011.4
20260505040838 65 207 1.0 5.0 0.00 0.00 0.00 56 1011.4
20260505040324 65 221 1.0 5.0 0.00 0.00 0.00 56 1011.6
20260505035821 64 236 2.0 5.0 0.00 0.00 0.00 56 1011.5
20260505035326 64 211 0.0 5.0 0.00 0.00 0.00 56 1011.4
20260505034831 64 252 3.0 7.0 0.00 0.00 0.00 56 1011.4
20260505034337 64 204 2.0 8.0 0.00 0.00 0.00 56 1011.4
20260505033823 64 222 2.0 8.0 0.00 0.00 0.00 56 1011.3
20260505033328 64 209 1.0 5.0 0.00 0.00 0.00 56 1011.5
20260505032835 64 205 1.0 5.0 0.00 0.00 0.00 56 1011.4
20260505032324 64 212 1.0 4.0 0.00 0.00 0.00 56 1011.4
20260505031830 64 204 0.0 5.0 0.00 0.00 0.00 56 1011.5
20260505031354 64 203 1.0 5.0 0.00 0.00 0.00 56 1011.4
20260505030820 63 194 1.0 3.0 0.00 0.00 0.00 56 1011.6
20260505030346 63 192 1.0 3.0 0.00 0.00 0.00 57 1011.5
20260505025821 63 222 0.0 2.0 0.00 0.00 0.00 58 1011.4
20260505025327 63 222 0.0 2.0 0.00 0.00 0.00 57 1011.5
20260505024832 63 223 0.0 2.0 0.00 0.00 0.00 58 1011.5
20260505024357 63 223 0.0 1.0 0.00 0.00 0.00 58 1011.7
20260505023824 64 223 0.0 2.0 0.00 0.00 0.00 58 1011.5
20260505023329 64 223 0.0 2.0 0.00 0.00 0.00 56 1011.6
20260505022834 64 223 0.0 2.0 0.00 0.00 0.00 55 1011.6
20260505022323 64 223 0.0 3.0 0.00 0.00 0.00 54 1011.5
20260505021849 65 223 1.0 3.0 0.00 0.00 0.00 54 1011.5
20260505021333 65 223 1.0 3.0 0.00 0.00 0.00 53 1011.4
20260505020839 64 224 0.0 3.0 0.00 0.00 0.00 54 1011.4
20260505020326 64 224 0.0 3.0 0.00 0.00 0.00 55 1011.3
20260505015840 64 225 0.0 3.0 0.00 0.00 0.00 57 1011.3
20260505015347 65 225 0.0 3.0 0.00 0.00 0.00 55 1011.4
20260505014852 65 225 0.0 2.0 0.00 0.00 0.00 53 1011.4
20260505014336 65 225 0.0 0.0 0.00 0.00 0.00 53 1011.2
20260505013821 66 225 0.0 2.0 0.00 0.00 0.00 52 1011.2
20260505013328 66 225 0.0 2.0 0.00 0.00 0.00 50 1011.1
20260505012834 66 225 0.0 2.0 0.00 0.00 0.00 51 1011.0
20260505012321 66 225 0.0 2.0 0.00 0.00 0.00 50 1011.0
20260505011828 67 225 0.0 3.0 0.00 0.00 0.00 50 1011.0
20260505011337 67 225 0.0 3.0 0.00 0.00 0.00 49 1011.0
20260505010823 67 232 0.0 2.0 0.00 0.00 0.00 48 1010.8
20260505010330 67 232 0.0 1.0 0.00 0.00 0.00 48 1010.8
20260505005826 68 232 0.0 1.0 0.00 0.00 0.00 47 1010.7
20260505005331 68 232 0.0 2.0 0.00 0.00 0.00 46 1010.7
20260505004836 68 232 0.0 2.0 0.00 0.00 0.00 46 1010.7
20260505004342 69 232 0.0 2.0 0.00 0.00 0.00 46 1010.6
20260505003848 69 232 0.0 1.0 0.00 0.00 0.00 45 1010.5
20260505003333 69 232 0.0 4.0 0.00 0.00 0.00 45 1010.7
20260505002837 69 232 1.0 4.0 0.00 0.00 0.00 44 1010.7
20260505002323 70 221 0.0 4.0 0.00 0.00 0.00 43 1010.6
20260505001850 70 221 0.0 4.0 0.00 0.00 0.00 43 1010.6
20260505001334 70 209 0.0 5.0 0.00 0.00 0.00 42 1010.6
20260505000823 70 196 1.0 5.0 0.00 0.00 0.00 43 1010.6
20260505000330 70 213 1.0 6.0 0.00 0.00 0.00 43 1010.6
20260504235826 70 213 1.0 6.0 0.00 0.00 0.00 42 1010.6
20260504235333 70 213 0.0 7.0 0.00 0.00 0.00 42 1010.4
20260504234837 71 200 0.0 3.0 0.00 0.00 0.00 42 1010.4
20260504234322 71 198 1.0 9.0 0.00 0.00 0.00 42 1010.3
20260504233828 71 211 0.0 9.0 0.00 0.00 0.00 40 1010.3
20260504233334 72 204 0.0 8.0 0.00 0.00 0.00 40 1010.3
20260504232840 72 192 1.0 4.0 0.00 0.00 0.00 40 1010.4
20260504232325 72 152 2.0 10.0 0.00 0.00 0.00 39 1010.3
20260504231835 73 219 2.0 10.0 0.00 0.00 0.00 38 1010.4
20260504231401 73 194 3.0 9.0 0.00 0.00 0.00 39 1010.4
20260504230824 73 216 3.0 9.0 0.00 0.00 0.00 39 1010.4
20260504230331 73 132 2.0 14.0 0.00 0.00 0.00 38 1010.4
20260504225826 73 193 4.0 14.0 0.00 0.00 0.00 39 1010.4
20260504225331 74 212 2.0 6.0 0.00 0.00 0.00 39 1010.3
20260504224837 74 213 1.0 4.0 0.00 0.00 0.00 39 1010.5
20260504224322 74 225 1.0 7.0 0.00 0.00 0.00 38 1010.4
20260504223828 74 179 1.0 8.0 0.00 0.00 0.00 37 1010.3
20260504223334 74 207 4.0 8.0 0.00 0.00 0.00 36 1010.3
20260504222820 74 212 2.0 5.0 0.00 0.00 0.00 37 1010.4
20260504222330 74 187 1.0 5.0 0.00 0.00 0.00 37 1010.3
20260504221858 74 159 2.0 7.0 0.00 0.00 0.00 38 1010.3
20260504221321 74 152 3.0 14.0 0.00 0.00 0.00 37 1010.4
20260504220827 74 167 3.0 14.0 0.00 0.00 0.00 37 1010.4
20260504220333 74 207 3.0 7.0 0.00 0.00 0.00 37 1010.3
20260504215830 74 229 2.0 13.0 0.00 0.00 0.00 36 1010.2
20260504215336 74 213 5.0 13.0 0.00 0.00 0.00 35 1010.3
20260504214822 74 201 4.0 9.0 0.00 0.00 0.00 36 1010.4
20260504214329 74 257 1.0 8.0 0.00 0.00 0.00 39 1010.4
20260504213836 74 209 3.0 8.0 0.00 0.00 0.00 36 1010.4
20260504213321 75 188 1.0 11.0 0.00 0.00 0.00 35 1010.4
20260504212327 75 190 2.0 12.0 0.00 0.00 0.00 37 1010.4
20260504211833 75 196 2.0 11.0 0.00 0.00 0.00 35 1010.4
20260504211339 75 215 5.0 11.0 0.00 0.00 0.00 34 1010.4
20260504210822 75 228 3.0 10.0 0.00 0.00 0.00 35 1010.4
20260504210326 75 200 4.0 10.0 0.00 0.00 0.00 35 1010.4
20260504205821 75 224 4.0 10.0 0.00 0.00 0.00 37 1010.4
20260504205328 75 225 5.0 10.0 0.00 0.00 0.00 35 1010.4
20260504204833 75 184 3.0 12.0 0.00 0.00 0.00 35 1010.4
20260504204358 75 167 5.0 12.0 0.00 0.00 0.00 35 1010.3
20260504203822 76 199 4.0 12.0 0.00 0.00 0.00 36 1010.3
20260504203328 75 177 3.0 8.0 0.00 0.00 0.00 38 1010.4
20260504202838 75 236 1.0 8.0 0.00 0.00 0.00 38 1010.5
20260504202344 75 231 4.0 18.0 0.00 0.00 0.00 36 1010.6
20260504201828 75 205 7.0 18.0 0.00 0.00 0.00 35 1010.6
20260504201335 74 193 5.0 9.0 0.00 0.00 0.00 36 1010.7
20260504200821 74 177 3.0 14.0 0.00 0.00 0.00 36 1010.8
20260504200327 75 202 6.0 14.0 0.00 0.00 0.00 35 1010.9
20260504195824 75 192 5.0 14.0 0.00 0.00 0.00 36 1010.8
20260504195350 74 242 5.0 14.0 0.00 0.00 0.00 35 1010.8
20260504194834 74 255 4.0 11.0 0.00 0.00 0.00 36 1010.9
20260504194359 74 206 5.0 11.0 0.00 0.00 0.00 36 1010.9
20260504193824 74 214 1.0 10.0 0.00 0.00 0.00 40 1011.0
20260504193330 74 192 0.0 9.0 0.00 0.00 0.00 39 1011.2
20260504192820 74 234 1.0 9.0 0.00 0.00 0.00 38 1011.5
20260504192327 74 191 4.0 9.0 0.00 0.00 0.00 38 1011.7
20260504191833 73 208 2.0 11.0 0.00 0.00 0.00 37 1011.6
20260504191320 73 188 4.0 12.0 0.00 0.00 0.00 37 1011.8
20260504190826 73 180 3.0 12.0 0.00 0.00 0.00 39 1011.8
20260504190353 73 142 2.0 16.0 0.00 0.00 0.00 40 1011.9
20260504185828 73 241 6.0 10.0 0.00 0.00 0.00 36 1012.2
20260504185354 73 313 6.0 10.0 0.00 0.00 0.00 36 1012.2
20260504184838 73 150 4.0 11.0 0.00 0.00 0.00 37 1012.3
20260504184325 72 301 5.0 14.0 0.00 0.00 0.00 38 1012.4
20260504183831 72 177 6.0 14.0 0.00 0.00 0.00 36 1012.4
20260504183336 72 222 3.0 12.0 0.00 0.00 0.00 37 1012.5
20260504182826 72 175 5.0 12.0 0.00 0.00 0.00 36 1012.6
20260504182333 72 233 4.0 12.0 0.00 0.00 0.00 36 1012.6